Wind_Speed
44 43 43 43 42 42 42 42 41 40 40 41 39 38 37 35 36 36 35 36 37 39 40 43 47 50 52 54 55 58 62 65 66 66 66 67 67 66 65 63 60 58 57 54
44 43 43 42 42 42 41 40 40 39 39 39 37 34 33 32 32 32 32 33 34 36 37 38 42 46 50 53 54 57 61 64 65 66 67 68 69 67 65 63 62 60 58 55
44 44 43 41 41 40 38 39 40 40 38 35 36 33 29 30 30 30 31 31 32 34 35 37 40 43 48 51 54 56 59 62 65 66 66 67 69 67 65 64 63 60 58 56
44 44 43 41 40 40 39 38 39 38 38 35 33 34 28 28 27 28 28 28 29 30 34 36 38 41 45 49 52 57 59 61 64 65 66 66 66 66 65 63 62 60 58 57
44 44 43 40 39 39 39 38 37 36 35 33 30 34 31 28 27 26 26 26 27 28 31 34 37 40 43 47 50 56 58 61 63 64 64 65 66 66 65 63 63 60 58 56
44 43 42 40 39 38 38 38 37 35 34 32 29 32 31 27 28 26 26 26 26 27 28 30 33 37 41 45 49 53 57 60 61 63 63 63 66 67 65 64 60 59 58 56
44 42 41 40 38 37 37 38 38 37 35 32 29 30 29 27 27 27 26 26 26 26 27 28 30 34 39 44 48 52 56 59 61 62 61 62 64 64 63 62 59 57 57 56
45 42 41 40 38 37 36 36 36 36 35 32 29 28 27 26 26 27 26 25 25 26 27 26 27 32 38 43 47 51 54 58 60 61 61 60 63 63 63 61 58 57 56 54
45 42 40 38 37 36 36 34 34 35 35 34 31 29 27 25 26 26 25 25 24 25 26 25 27 31 36 41 46 50 53 58 60 60 58 59 60 62 63 60 57 55 53 53
44 43 40 38 37 36 35 34 33 33 34 35 32 30 27 26 26 26 26 24 25 25 26 25 26 30 33 38 44 50 54 56 59 59 58 59 60 61 62 62 58 55 52 50
45 45 41 39 38 36 35 34 33 34 33 34 34 31 28 27 26 26 26 25 24 24 26 26 28 30 32 36 42 48 54 55 58 58 57 58 59 60 61 60 58 54 52 51
45 45 42 40 39 37 36 34 34 34 34 33 34 31 27 27 27 26 25 25 24 24 25 26 28 29 32 36 41 47 51 54 55 57 56 57 59 58 59 60 57 54 51 50
45 45 44 41 40 39 37 35 35 35 35 34 34 32 28 28 28 27 26 25 25 24 24 26 27 30 33 36 40 45 49 52 54 56 55 55 57 58 59 60 58 54 51 50
45 44 43 42 40 40 38 36 36 36 36 35 33 32 28 28 28 28 27 25 25 25 25 26 27 30 33 36 39 44 48 51 52 55 55 55 55 56 57 58 58 56 53 51
45 45 44 42 40 39 38 36 36 36 35 36 33 32 29 28 28 28 27 26 25 25 25 26 28 30 33 36 39 43 46 49 50 52 54 53 54 53 55 55 55 55 53 51
46 46 45 43 41 40 39 36 35 35 35 36 35 31 29 30 29 28 27 26 26 26 26 26 27 30 32 35 38 41 45 48 49 50 52 52 54 52 53 53 52 51 51 51
47 46 46 44 41 42 40 37 36 36 35 35 35 32 31 30 29 29 27 26 26 27 27 27 27 29 32 35 37 42 45 47 48 48 50 50 51 53 53 54 53 52 51 50
46 45 46 45 44 43 39 38 37 36 34 34 34 33 32 31 30 29 28 27 26 27 27 28 28 29 31 34 37 41 44 47 48 48 48 50 51 52 52 53 53 52 51 51
44 44 45 45 45 45 39 38 38 36 34 33 33 33 33 32 31 29 29 27 26 26 27 28 29 30 31 33 36 40 43 47 48 47 48 48 49 50 50 50 52 52 50 51
44 44 44 45 46 46 42 40 38 37 34 32 33 32 32 32 31 30 30 28 27 27 27 28 30 31 33 34 35 38 41 45 47 47 49 49 49 48 47 48 49 50 50 50
43 43 43 44 45 45 41 40 38 37 36 34 32 32 32 31 31 30 29 29 28 28 28 28 29 31 33 35 36 37 40 43 46 47 47 48 48 48 47 45 47 49 49 49
44 44 43 43 44 43 41 39 38 37 36 35 33 32 31 30 30 29 29 29 29 28 29 29 29 30 33 35 36 37 39 41 44 47 47 46 47 48 47 46 46 48 48 48
44 43 43 43 42 42 40 39 38 37 36 35 33 32 30 30 29 28 29 29 29 29 30 30 31 31 32 35 37 38 39 41 42 44 46 47 47 47 47 47 46 46 47 47
44 43 43 43 40 39 39 38 37 36 34 34 33 32 31 30 29 29 28 28 28 29 30 30 31 32 33 35 37 38 39 42 42 43 44 46 46 46 46 46 46 47 46 44
42 43 43 41 38 38 37 37 35 34 34 33 32 32 31 29 28 29 29 28 27 28 29 30 30 32 33 35 37 39 39 41 42 43 43 44 45 45 45 46 46 46 46 45
39 41 41 39 37 37 35 35 34 34 33 33 32 31 30 29 29 29 28 28 27 27 28 29 29 30 32 33 36 39 40 41 41 42 43 43 44 45 44 45 45 46 46 44
Wind_Direction
326 324 322 320 317 313 312 309 307 305 304 301 299 297 295 290 285 280 276 270 266 259 253 247 241 237 234 229 226 223 219 218 218 217 218 218 219 220 222 224 225 227 229 230
328 326 324 321 319 316 314 312 309 309 308 304 301 300 297 292 287 283 279 273 266 258 254 249 242 236 231 227 223 220 217 215 216 216 217 218 219 220 221 224 225 227 228 230
329 327 325 323 321 318 316 315 313 313 311 306 302 300 298 294 290 285 279 274 266 259 254 250 244 238 231 225 221 218 215 214 214 215 216 217 218 218 219 221 224 226 228 229
329 327 325 323 321 320 320 317 316 315 313 311 307 304 300 297 292 285 279 273 266 260 254 249 245 240 231 224 219 216 214 214 213 215 215 216 217 218 219 222 225 226 228 229
328 327 326 325 323 321 320 320 319 318 314 310 307 303 304 300 294 287 279 274 267 262 257 249 245 241 233 224 218 216 214 214 214 214 215 217 217 218 219 221 223 225 227 229
327 326 325 325 323 322 321 321 320 318 315 315 311 305 305 300 296 292 285 278 271 264 258 248 244 240 233 223 218 216 214 213 213 213 215 217 216 217 219 220 221 224 227 229
327 326 324 324 323 322 321 322 321 320 318 318 313 307 306 299 297 294 291 282 272 266 259 248 242 238 231 224 219 215 213 213 213 214 214 215 215 215 217 219 221 223 225 227
326 327 325 324 323 322 322 321 321 319 317 315 311 308 306 298 295 293 290 285 276 268 261 251 243 238 230 225 218 215 213 212 213 214 216 216 216 216 217 219 220 222 223 225
324 324 324 322 321 320 319 318 318 315 314 312 310 307 299 295 291 288 285 283 276 269 261 254 244 236 231 226 219 215 214 213 212 213 215 217 217 217 218 218 219 222 223 224
322 322 322 320 318 318 317 317 315 314 313 311 310 308 305 295 293 287 283 280 275 267 259 253 246 238 232 227 221 216 214 213 212 213 215 216 217 218 219 219 220 222 222 224
321 321 321 318 318 317 316 314 312 309 308 307 309 311 306 299 293 289 284 279 275 266 260 252 244 237 232 227 221 216 213 213 214 215 216 216 218 219 218 218 220 222 224 227
319 320 319 317 316 314 313 312 309 307 305 303 303 309 305 299 292 287 282 279 273 266 260 254 245 237 231 226 220 217 215 215 215 216 217 218 219 219 220 220 221 223 224 224
317 318 317 316 315 314 311 310 307 304 302 300 300 305 303 297 293 286 281 279 271 264 259 254 246 237 230 226 222 218 217 216 216 216 218 218 218 219 220 220 221 223 223 224
315 315 315 315 314 312 310 307 304 301 299 298 299 300 299 295 291 287 282 277 271 262 257 253 248 239 231 226 222 218 218 216 217 218 219 219 219 220 221 222 222 223 223 225
313 313 313 313 312 310 308 305 303 301 299 296 297 297 299 293 291 289 284 278 270 262 256 252 248 241 233 228 224 220 219 217 216 216 218 218 219 219 219 221 224 224 225 226
311 310 311 311 311 309 307 307 303 301 298 296 294 295 295 291 291 289 284 278 272 263 256 250 247 241 235 230 226 221 219 217 216 216 217 219 218 218 219 221 223 223 225 226
308 308 308 309 309 308 307 309 304 301 298 294 293 293 290 289 289 288 282 278 272 263 257 250 245 240 235 231 227 224 222 219 218 217 216 219 219 218 219 221 223 224 225 225
306 305 306 307 307 306 310 307 305 302 298 295 293 290 288 287 287 286 282 276 270 264 258 251 244 239 235 231 228 226 223 220 220 219 218 219 220 220 221 222 223 224 224 226
303 302 302 304 304 307 308 307 306 303 300 296 294 290 286 285 284 282 280 276 270 263 258 252 245 239 235 231 228 226 223 221 220 220 219 219 218 218 220 221 222 224 224 224
300 300 300 302 303 306 309 307 306 303 301 299 295 292 287 283 283 280 276 274 268 262 257 252 246 241 236 232 229 226 223 223 221 220 220 219 218 218 219 220 222 223 223 223
299 298 299 300 301 304 306 304 304 302 302 301 297 292 288 284 282 279 274 270 267 261 256 252 247 242 238 234 230 227 224 224 221 220 221 220 220 219 220 221 222 222 221 223
297 298 298 299 300 304 303 301 301 300 299 299 298 294 289 285 282 278 274 269 265 259 255 251 248 244 238 234 231 228 225 223 221 220 221 221 222 221 221 222 223 223 223 224
296 297 296 297 300 301 299 298 298 297 296 297 296 294 289 283 280 278 275 270 265 259 254 250 246 244 240 236 232 230 227 223 220 220 221 221 221 221 221 221 221 222 224 225
295 295 295 297 299 297 296 296 296 295 294 294 293 292 289 283 278 277 276 272 266 260 255 250 245 243 240 235 232 230 227 223 221 220 220 219 219 219 220 221 221 221 222 224
295 294 296 297 297 294 294 295 295 294 293 292 292 290 287 283 278 276 276 272 265 259 254 250 246 242 239 235 232 230 227 224 221 220 219 220 220 219 219 221 221 222 223 224
293 293 295 296 295 293 294 294 294 293 293 291 290 289 286 283 279 276 275 270 264 259 253 249 247 244 239 235 231 228 226 224 223 222 220 220 221 220 220 219 219 221 222 223
Height
5645 5640 5632 5625 5618 5612 5606 5601 5596 5593 5588 5582 5578 5575 5573 5570 5567 5565 5563 5563 5563 5565 5569 5572 5576 5581 5588 5596 5604 5614 5626 5638 5651 5662 5672 5682 5692 5702 5713 5722 5731 5739 5746 5752
5639 5632 5625 5617 5611 5605 5599 5594 5589 5586 5580 5574 5570 5567 5565 5562 5559 5556 5554 5554 5555 5556 5559 5561 5565 5570 5576 5584 5593 5602 5613 5626 5638 5649 5660 5669 5680 5691 5702 5712 5720 5727 5735 5743
5632 5626 5618 5611 5605 5599 5594 5587 5581 5577 5573 5568 5562 5561 5559 5556 5552 5549 5547 5546 5547 5548 5550 5553 5557 5561 5567 5574 5582 5591 5603 5615 5626 5637 5647 5658 5668 5679 5690 5700 5709 5717 5725 5734
5625 5619 5612 5605 5599 5592 5588 5582 5575 5570 5564 5561 5557 5551 5554 5549 5546 5544 5542 5541 5541 5542 5543 5545 5548 5552 5558 5564 5572 5582 5593 5603 5614 5624 5634 5646 5657 5669 5680 5689 5699 5708 5717 5725
5619 5612 5605 5599 5593 5586 5581 5575 5570 5564 5558 5555 5552 5545 5547 5543 5541 5538 5537 5536 5535 5536 5537 5539 5541 5545 5550 5556 5563 5573 5583 5594 5604 5614 5625 5636 5648 5659 5670 5679 5688 5698 5706 5714
5613 5606 5599 5593 5587 5580 5574 5570 5565 5560 5554 5551 5547 5541 5540 5537 5535 5533 5531 5530 5529 5530 5530 5532 5534 5537 5542 5548 5556 5565 5575 5586 5595 5606 5616 5626 5638 5649 5659 5669 5678 5687 5696 5704
5607 5600 5593 5587 5581 5575 5569 5563 5557 5552 5548 5546 5542 5537 5535 5532 5529 5528 5526 5525 5524 5524 5524 5525 5527 5530 5535 5541 5548 5557 5567 5577 5587 5597 5606 5617 5628 5638 5649 5660 5668 5677 5686 5695
5598 5594 5587 5580 5575 5569 5564 5558 5553 5547 5542 5540 5538 5533 5531 5528 5525 5523 5522 5520 5519 5518 5519 5520 5522 5524 5529 5534 5541 5549 5558 5568 5578 5588 5598 5609 5620 5629 5639 5650 5660 5668 5677 5687
5591 5587 5581 5575 5569 5564 5559 5554 5548 5542 5537 5533 5531 5529 5527 5524 5521 5519 5517 5515 5514 5513 5513 5515 5516 5519 5523 5529 5535 5542 5550 5559 5569 5580 5589 5600 5611 5621 5631 5641 5651 5660 5668 5677
5584 5580 5577 5570 5564 5559 5555 5549 5544 5537 5531 5526 5525 5523 5521 5518 5516 5514 5511 5509 5508 5508 5508 5509 5511 5514 5518 5522 5528 5535 5544 5552 5563 5573 5582 5591 5602 5612 5623 5633 5642 5651 5661 5669
5578 5573 5569 5564 5558 5554 5549 5544 5538 5532 5527 5522 5517 5520 5516 5512 5510 5508 5507 5505 5503 5503 5503 5504 5506 5509 5512 5517 5523 5529 5538 5547 5556 5566 5575 5584 5594 5604 5614 5624 5634 5643 5652 5661
5571 5565 5561 5558 5552 5547 5542 5538 5533 5528 5523 5517 5512 5515 5512 5507 5504 5502 5501 5499 5498 5498 5498 5499 5501 5504 5508 5512 5517 5524 5532 5540 5549 5559 5568 5577 5586 5594 5605 5616 5626 5635 5644 5653
5564 5558 5553 5549 5546 5541 5535 5532 5526 5521 5516 5512 5507 5509 5506 5502 5498 5496 5495 5494 5493 5493 5493 5494 5496 5499 5502 5507 5512 5519 5526 5534 5543 5552 5560 5569 5578 5587 5597 5608 5618 5627 5636 5644
5555 5551 5547 5543 5537 5531 5527 5524 5520 5514 5509 5506 5503 5501 5500 5495 5492 5490 5489 5488 5488 5488 5488 5489 5491 5493 5497 5501 5506 5512 5520 5527 5536 5544 5552 5561 5570 5579 5589 5599 5608 5618 5628 5636
5547 5543 5538 5535 5530 5525 5520 5517 5513 5507 5503 5499 5497 5494 5493 5489 5486 5484 5482 5482 5481 5482 5482 5483 5485 5488 5491 5495 5500 5506 5513 5520 5528 5536 5545 5553 5563 5571 5581 5590 5599 5609 5619 5627
5539 5534 5530 5527 5522 5516 5512 5510 5505 5500 5496 5491 5489 5488 5487 5482 5480 5478 5477 5476 5475 5476 5476 5478 5480 5482 5485 5489 5494 5500 5506 5513 5521 5529 5538 5546 5555 5563 5573 5582 5591 5600 5609 5618
5530 5525 5520 5517 5513 5507 5504 5503 5497 5492 5489 5485 5481 5481 5478 5476 5474 5472 5470 5469 5469 5469 5470 5471 5473 5475 5479 5483 5488 5493 5499 5506 5513 5521 5530 5538 5547 5555 5564 5574 5582 5592 5601 5610
5522 5515 5509 5506 5503 5498 5500 5494 5489 5484 5481 5477 5473 5471 5469 5468 5466 5464 5463 5462 5462 5462 5463 5465 5466 5469 5472 5476 5480 5486 5492 5499 5506 5514 5522 5531 5539 5547 5556 5565 5574 5584 5593 5601
5513 5507 5501 5496 5490 5487 5489 5486 5479 5475 5473 5470 5465 5463 5461 5459 5458 5457 5455 5455 5455 5455 5456 5458 5460 5462 5465 5469 5474 5479 5485 5492 5499 5506 5514 5523 5532 5540 5548 5558 5567 5575 5584 5592
5503 5498 5493 5487 5481 5477 5481 5475 5470 5466 5464 5462 5457 5455 5453 5451 5450 5450 5448 5447 5447 5448 5449 5451 5453 5455 5459 5462 5467 5472 5478 5484 5491 5499 5507 5515 5524 5532 5540 5549 5558 5567 5575 5584
5493 5488 5483 5478 5471 5469 5471 5465 5461 5458 5457 5453 5449 5447 5444 5443 5442 5441 5440 5440 5440 5441 5442 5443 5445 5448 5451 5455 5460 5465 5471 5477 5484 5491 5499 5507 5516 5524 5532 5541 5550 5558 5567 5575
5482 5478 5474 5469 5463 5463 5459 5455 5452 5450 5446 5443 5440 5438 5436 5434 5433 5432 5431 5431 5431 5432 5434 5435 5438 5440 5444 5448 5452 5457 5463 5469 5476 5483 5492 5500 5508 5516 5524 5532 5541 5550 5558 5566
5471 5469 5463 5460 5459 5454 5448 5445 5442 5440 5437 5434 5431 5429 5427 5426 5425 5424 5423 5423 5423 5424 5425 5427 5430 5433 5436 5440 5445 5450 5456 5462 5469 5476 5484 5492 5500 5508 5516 5524 5533 5541 5549 5557
5461 5457 5452 5449 5448 5444 5439 5435 5433 5430 5428 5425 5422 5420 5419 5417 5416 5416 5415 5414 5414 5415 5417 5419 5421 5424 5428 5432 5437 5442 5448 5454 5461 5469 5476 5484 5492 5499 5507 5515 5524 5532 5541 5549
5451 5446 5442 5439 5437 5433 5430 5426 5424 5421 5418 5416 5414 5412 5410 5408 5408 5407 5406 5406 5406 5407 5409 5410 5413 5416 5420 5423 5428 5434 5440 5446 5454 5461 5468 5475 5483 5491 5499 5507 5515 5524 5533 5540
5441 5435 5431 5429 5427 5423 5421 5417 5415 5412 5410 5407 5405 5403 5401 5400 5399 5398 5398 5397 5398 5399 5400 5402 5405 5407 5411 5415 5420 5426 5432 5439 5446 5453 5460 5467 5475 5482 5490 5498 5506 5515 5524 5531